K9SET Weather Reports


time (UTC)temp
F
wind
direction
speed
knots
gust
knots
rain 1hr
in
rain 24hr
in
rain mn
in
humidity
%
barometer
mb
20260509090506 55 40 0.9 1.7 0.00 0.00 0.00 89 1007.7
20260509085505 55 18 0.9 1.7 0.00 0.00 0.00 88 1007.8
20260509084506 55 18 0.0 1.7 0.00 0.00 0.00 88 1008.1
20260509084005 55 336 0.0 0.9 0.00 0.00 0.00 88 1008.1
20260509083506 55 317 0.0 0.9 0.00 0.00 0.00 88 1008.1
20260509083006 56 317 0.0 2.6 0.00 0.00 0.00 87 1007.9
20260509082506 55 317 0.9 2.6 0.00 0.00 0.00 86 1007.9
20260509082005 55 109 0.9 2.6 0.00 0.00 0.00 87 1007.9
20260509081505 55 357 0.0 2.6 0.00 0.00 0.00 87 1007.9
20260509081006 55 48 0.0 1.7 0.00 0.00 0.00 88 1008.1
20260509080005 55 49 0.9 1.7 0.00 0.00 0.00 86 1007.8
20260509075506 56 49 0.0 1.7 0.00 0.00 0.00 86 1007.8
20260509074505 56 49 0.0 0.9 0.00 0.00 0.00 86 1007.8
20260509074006 56 49 0.0 0.9 0.00 0.00 0.00 86 1007.8
20260509073506 56 49 0.0 1.7 0.00 0.00 0.00 86 1007.9
20260509073005 56 49 0.0 2.6 0.00 0.00 0.00 86 1007.9
20260509072506 56 49 0.9 4.3 0.00 0.00 0.00 86 1007.9
20260509072005 56 41 0.9 4.3 0.00 0.00 0.00 87 1007.9
20260509071505 56 64 0.9 2.6 0.00 0.00 0.00 87 1007.9
20260509070505 56 135 0.9 1.7 0.00 0.00 0.00 85 1007.8
20260509070005 56 135 0.9 1.7 0.00 0.00 0.00 86 1007.9
20260509065005 56 135 0.0 0.9 0.00 0.00 0.00 85 1008.0
20260509064505 56 135 0.9 1.7 0.00 0.00 0.00 85 1008.1
20260509064005 56 135 0.0 1.7 0.00 0.00 0.00 85 1008.1
20260509063006 56 141 0.9 2.6 0.00 0.00 0.00 84 1008.3
20260509062505 57 148 0.9 2.6 0.00 0.00 0.00 84 1008.2
20260509062006 57 133 1.7 2.6 0.00 0.00 0.00 84 1008.3
20260509061506 57 144 1.7 2.6 0.00 0.00 0.00 84 1008.3
20260509061006 57 119 0.0 2.6 0.00 0.00 0.00 85 1008.3
20260509060505 57 120 0.9 2.6 0.00 0.00 0.00 85 1008.4
20260509060006 57 149 0.9 1.7 0.00 0.00 0.00 84 1008.5
20260509055506 57 149 0.9 1.7 0.00 0.00 0.00 83 1008.5
20260509055005 57 149 0.0 0.9 0.00 0.00 0.00 82 1008.6
20260509054505 57 149 0.0 0.0 0.00 0.00 0.00 83 1008.6
20260509054006 57 149 0.0 0.0 0.00 0.00 0.00 83 1008.7
20260509053005 57 149 0.0 0.9 0.00 0.00 0.00 83 1008.6
20260509052506 57 149 0.0 0.9 0.00 0.00 0.00 83 1008.7
20260509051006 58 149 0.0 0.9 0.00 0.00 0.00 82 1008.5
20260509050505 58 149 0.0 0.9 0.00 0.00 0.00 81 1008.5
20260509050005 58 149 0.0 0.9 0.00 0.00 0.00 80 1008.4
20260509045505 58 149 0.0 0.9 0.00 0.00 0.00 80 1008.4
20260509045005 58 149 0.0 0.9 0.00 0.00 0.00 81 1008.4
20260509044006 59 149 0.0 0.9 0.00 0.00 0.00 80 1008.4
20260509043506 59 149 0.0 0.9 0.00 0.00 0.00 78 1008.4
20260509043005 59 149 0.0 1.7 0.00 0.00 0.00 78 1008.4
20260509042506 59 153 0.9 1.7 0.00 0.00 0.00 74 1008.4
20260509041505 59 153 0.9 2.6 0.00 0.00 0.00 74 1008.5
20260509041005 60 163 0.9 1.7 0.00 0.00 0.00 73 1008.5
20260509040505 60 173 0.9 1.7 0.00 0.00 0.00 73 1008.5
20260509040005 60 173 0.9 2.6 0.00 0.00 0.00 71 1008.5
20260509035505 60 163 0.9 2.6 0.00 0.00 0.00 73 1008.6
20260509035005 60 169 0.9 2.6 0.00 0.00 0.00 70 1008.6
20260509034505 61 188 0.9 2.6 0.00 0.00 0.00 70 1008.6
20260509033505 61 169 0.9 2.6 0.00 0.00 0.00 69 1008.6
20260509033006 61 178 1.7 2.6 0.00 0.00 0.00 69 1008.7
20260509032505 61 181 1.7 2.6 0.00 0.00 0.00 69 1008.8
20260509032005 61 182 0.9 2.6 0.00 0.00 0.00 68 1008.8
20260509031505 61 187 0.9 2.6 0.00 0.00 0.00 68 1008.8
20260509031005 61 204 1.7 2.6 0.00 0.00 0.00 67 1008.8
20260509030505 62 171 0.9 4.3 0.00 0.00 0.00 68 1008.8
20260509030005 62 168 1.7 4.3 0.00 0.00 0.00 67 1008.9
20260509025505 62 177 1.7 2.6 0.00 0.00 0.00 68 1009.0
20260509025005 62 212 1.7 5.2 0.00 0.00 0.00 67 1009.1
20260509024505 62 177 1.7 5.2 0.00 0.00 0.00 67 1009.1
20260509024006 62 169 0.9 4.3 0.00 0.00 0.00 67 1009.1
20260509023505 63 173 0.9 4.3 0.00 0.00 0.00 66 1009.1
20260509023005 63 175 2.6 4.3 0.00 0.00 0.00 65 1009.1
20260509022505 63 171 1.7 4.3 0.00 0.00 0.00 65 1009.1
20260509022005 63 155 1.7 4.3 0.00 0.00 0.00 64 1009.1
20260509021505 63 182 0.9 4.3 0.00 0.00 0.00 64 1009.1
20260509021005 64 188 1.7 4.3 0.00 0.00 0.00 64 1009.1
20260509020506 64 223 1.7 5.2 0.00 0.00 0.00 63 1009.0
20260509020006 64 181 1.7 5.2 0.00 0.00 0.00 63 1009.0
20260509015505 64 179 1.7 5.2 0.00 0.00 0.00 65 1009.0
20260509015006 64 185 1.7 4.3 0.00 0.00 0.00 63 1009.0
20260509014504 64 199 1.7 4.3 0.00 0.00 0.00 64 1009.0
20260509014005 64 178 1.7 4.3 0.00 0.00 0.00 63 1009.0
20260509013505 64 196 0.9 2.6 0.00 0.00 0.00 63 1009.1
20260509013005 65 210 0.9 2.6 0.00 0.00 0.00 61 1009.1
20260509012505 65 224 1.7 5.2 0.00 0.00 0.00 61 1009.0
20260509012009 65 206 2.6 5.2 0.00 0.00 0.00 61 1009.0
20260509011506 65 206 1.7 4.3 0.00 0.00 0.00 61 1009.0
20260509011005 65 225 0.9 4.3 0.00 0.00 0.00 61 1009.0
20260509010005 65 216 1.7 5.2 0.00 0.00 0.00 61 1009.0
20260509005505 65 223 0.9 2.6 0.00 0.00 0.00 61 1009.1
20260509005005 66 254 0.9 2.6 0.00 0.00 0.00 60 1009.2
20260509004005 66 243 0.9 6.1 0.00 0.00 0.00 59 1009.1
20260509003505 66 233 1.7 4.3 0.00 0.00 0.00 59 1009.1
20260509003004 66 230 1.7 4.3 0.00 0.00 0.00 59 1009.2
20260509002505 67 233 0.9 4.3 0.00 0.00 0.00 59 1009.2
20260509002006 67 229 1.7 4.3 0.00 0.00 0.00 58 1009.2
20260509001505 67 233 1.7 2.6 0.00 0.00 0.00 59 1009.3
20260509001004 68 253 0.0 2.6 0.00 0.00 0.00 58 1009.3
20260509000505 68 255 0.9 4.3 0.00 0.00 0.00 57 1009.3
20260508235505 68 265 1.7 6.1 0.00 0.00 0.00 57 1009.3
20260508235004 68 269 2.6 10.4 0.00 0.00 0.00 56 1009.2
20260508234506 69 234 3.5 10.4 0.00 0.00 0.00 56 1009.3
20260508234004 69 212 2.6 10.4 0.00 0.00 0.00 55 1009.3
20260508233505 69 219 2.6 13.9 0.00 0.00 0.00 55 1009.3
20260508233004 70 262 4.3 13.9 0.00 0.00 0.00 54 1009.3
20260508232005 70 262 5.2 10.4 0.00 0.00 0.00 53 1009.3
20260508231506 70 240 5.2 13.9 0.00 0.00 0.00 53 1009.4
20260508231005 70 248 6.1 13.9 0.00 0.00 0.00 53 1009.3
20260508230504 70 251 2.6 15.6 0.00 0.00 0.00 55 1009.3
20260508230005 71 211 6.1 15.6 0.00 0.00 0.00 53 1009.3
20260508225504 71 217 3.5 11.3 0.00 0.00 0.00 54 1009.3
20260508224506 71 229 3.5 12.2 0.00 0.00 0.00 54 1009.2
20260508224004 71 203 1.7 12.2 0.00 0.00 0.00 54 1009.4
20260508223505 71 244 5.2 13.9 0.00 0.00 0.00 53 1009.4
20260508223005 71 277 5.2 13.9 0.00 0.00 0.00 52 1009.5
20260508222504 72 244 7.0 12.2 0.00 0.00 0.00 52 1009.4
20260508222005 72 212 4.3 11.3 0.00 0.00 0.00 52 1009.4
20260508221504 72 301 4.3 12.2 0.00 0.00 0.00 51 1009.4
20260508221004 72 222 4.3 12.2 0.00 0.00 0.00 52 1009.4
20260508220005 71 280 4.3 13.0 0.00 0.00 0.00 52 1009.3
20260508215504 71 240 5.2 13.0 0.00 0.00 0.00 51 1009.3
20260508215005 71 233 2.6 11.3 0.00 0.00 0.00 52 1009.2
20260508214505 72 251 4.3 11.3 0.00 0.00 0.00 51 1009.4
20260508214004 72 278 2.6 11.3 0.00 0.00 0.00 52 1009.2
20260508213005 73 194 4.3 12.2 0.00 0.00 0.00 51 1009.3
20260508212505 73 253 6.1 12.2 0.00 0.00 0.00 50 1009.3
20260508212004 73 230 6.1 12.2 0.00 0.00 0.00 50 1009.5
20260508211005 73 277 7.8 13.0 0.00 0.00 0.00 50 1009.5
20260508210504 72 249 2.6 11.3 0.00 0.00 0.00 53 1009.7
20260508210004 71 255 4.3 12.2 0.00 0.00 0.00 52 1009.7
20260508205506 72 254 2.6 12.2 0.00 0.00 0.00 52 1009.7
20260508204504 73 253 6.1 13.9 0.00 0.00 0.00 50 1010.0
20260508203505 72 263 4.3 17.4 0.00 0.00 0.00 50 1010.1
20260508202504 73 229 5.2 13.9 0.00 0.00 0.00 49 1010.5
20260508202005 73 226 7.8 13.9 0.00 0.00 0.00 50 1010.5
20260508201505 73 236 4.3 13.9 0.00 0.00 0.00 50 1010.6
20260508200504 73 243 7.0 14.8 0.00 0.00 0.00 50 1010.6
20260508200004 73 271 4.3 11.3 0.00 0.00 0.00 51 1010.8
20260508195504 73 288 5.2 11.3 0.00 0.00 0.00 50 1010.8
20260508195004 73 230 2.6 12.2 0.00 0.00 0.00 48 1011.0
20260508194506 73 279 2.6 12.2 0.00 0.00 0.00 53 1011.1
20260508194005 73 300 4.3 12.2 0.00 0.00 0.00 50 1011.1
20260508193506 72 249 6.1 10.4 0.00 0.00 0.00 51 1011.1
20260508193004 72 307 3.5 12.2 0.00 0.00 0.00 49 1011.3
20260508192504 72 205 5.2 12.2 0.00 0.00 0.00 49 1011.3
20260508192004 72 307 5.2 15.6 0.00 0.00 0.00 50 1011.6
20260508191505 72 243 6.1 15.6 0.00 0.00 0.00 50 1011.5
20260508191004 72 245 5.2 12.2 0.00 0.00 0.00 49 1011.6
20260508190504 72 233 6.1 14.8 0.00 0.00 0.00 51 1011.6
20260508190004 72 241 5.2 17.4 0.00 0.00 0.00 51 1011.7
20260508185505 72 238 7.0 17.4 0.00 0.00 0.00 50 1011.8
20260508185005 71 289 4.3 17.4 0.00 0.00 0.00 52 1012.1
20260508184504 71 258 8.7 17.4 0.00 0.00 0.00 50 1012.1
20260508184004 71 231 4.3 17.4 0.00 0.00 0.00 54 1012.1
20260508183504 71 234 7.0 13.0 0.00 0.00 0.00 50 1011.9
20260508182005 71 234 6.1 12.2 0.00 0.00 0.00 51 1011.9
20260508181004 71 314 5.2 15.6 0.00 0.00 0.00 51 1011.8
20260508180504 71 258 7.0 13.0 0.00 0.00 0.00 48 1011.8
20260508180005 71 239 5.2 13.9 0.00 0.00 0.00 49 1011.8
20260508174504 71 243 3.5 12.2 0.00 0.00 0.00 52 1012.2
20260508174004 71 229 5.2 12.2 0.00 0.00 0.00 51 1012.3
20260508173005 71 242 4.3 10.4 0.00 0.00 0.00 51 1012.7
20260508172504 71 233 1.7 10.4 0.00 0.00 0.00 52 1012.8
20260508172004 70 180 2.6 10.4 0.00 0.00 0.00 54 1012.9
20260508171505 70 306 4.3 13.0 0.00 0.00 0.00 53 1012.9
20260508171004 70 225 7.8 13.0 0.00 0.00 0.00 51 1013.2
20260508170504 70 248 6.1 13.0 0.00 0.00 0.00 52 1013.1
20260508170005 69 256 5.2 12.2 0.00 0.00 0.00 53 1013.2
20260508165504 69 251 4.3 12.2 0.00 0.00 0.00 54 1013.4
20260508165004 69 223 6.1 17.4 0.00 0.00 0.00 51 1013.5
20260508164504 69 274 7.8 17.4 0.00 0.00 0.00 52 1013.5
20260508163503 69 256 7.0 13.0 0.00 0.00 0.00 53 1013.9
20260508162504 69 238 5.2 12.2 0.00 0.00 0.00 53 1014.0
20260508162004 69 256 6.1 13.0 0.00 0.00 0.00 52 1014.2
20260508160504 69 237 3.5 11.3 0.00 0.00 0.00 53 1014.2
20260508160006 68 232 3.5 11.3 0.00 0.00 0.00 56 1014.2
20260508155503 68 276 6.1 14.8 0.00 0.00 0.00 54 1014.3
20260508154504 68 275 5.2 12.2 0.00 0.00 0.00 54 1014.4
20260508154005 68 290 4.3 10.4 0.00 0.00 0.00 53 1014.5
20260508153504 67 262 3.5 10.4 0.00 0.00 0.00 56 1014.8
20260508153005 67 236 5.2 10.4 0.00 0.00 0.00 54 1014.8
20260508152504 67 288 4.3 11.3 0.00 0.00 0.00 55 1014.8
20260508152005 67 250 4.3 11.3 0.00 0.00 0.00 55 1014.8
20260508151504 67 249 4.3 7.8 0.00 0.00 0.00 56 1014.8
20260508151006 66 234 4.3 11.3 0.00 0.00 0.00 56 1014.9
20260508150506 66 264 4.3 11.3 0.00 0.00 0.00 57 1015.1
20260508150006 65 233 4.3 11.3 0.00 0.00 0.00 57 1015.1
20260508145006 64 293 2.6 13.0 0.00 0.00 0.00 61 1015.3
20260508144507 64 223 7.8 13.0 0.00 0.00 0.00 58 1015.4
20260508144006 63 274 5.2 12.2 0.00 0.00 0.00 59 1015.3
20260508143506 63 297 5.2 11.3 0.00 0.00 0.00 61 1015.3
20260508142006 63 262 3.5 8.7 0.00 0.00 0.00 64 1015.5
20260508141507 62 290 4.3 8.7 0.00 0.00 0.00 65 1015.4
20260508141006 62 295 3.5 10.4 0.00 0.00 0.00 62 1015.4
20260508140506 62 276 4.3 10.4 0.00 0.00 0.00 64 1015.4
20260508135506 61 285 4.3 8.7 0.00 0.00 0.00 65 1015.4
20260508135006 60 289 4.3 8.7 0.00 0.00 0.00 65 1015.5
20260508134506 60 286 1.7 5.2 0.00 0.00 0.00 66 1015.5
20260508134007 60 296 1.7 2.6 0.00 0.00 0.00 67 1015.5
20260508133506 59 261 1.7 4.3 0.00 0.00 0.00 69 1015.4
20260508133006 58 242 0.9 7.8 0.00 0.00 0.00 70 1015.4
20260508132006 58 232 1.7 7.8 0.00 0.00 0.00 71 1015.5
20260508131507 58 274 1.7 5.2 0.00 0.00 0.00 72 1015.4
20260508131006 57 254 0.9 2.6 0.00 0.00 0.00 72 1015.3
20260508130507 57 273 0.9 2.6 0.00 0.00 0.00 76 1015.3
20260508130006 56 216 0.9 1.7 0.00 0.00 0.00 80 1015.4
20260508125506 55 164 0.0 0.0 0.00 0.00 0.00 81 1015.4
20260508125005 54 139 0.0 0.9 0.00 0.00 0.00 85 1015.3
20260508124506 52 138 0.0 0.9 0.00 0.00 0.00 87 1015.2
20260508124006 51 140 0.0 0.9 0.00 0.00 0.00 89 1015.4
20260508123506 50 138 0.0 1.7 0.00 0.00 0.00 92 1015.3
20260508123006 49 135 0.9 1.7 0.00 0.00 0.00 95 1015.3
20260508122507 48 136 0.0 0.9 0.00 0.00 0.00 97 1015.4
20260508122007 46 140 0.0 1.7 0.00 0.00 0.00 96 1015.4
20260508121506 45 140 0.9 1.7 0.00 0.00 0.00 96 1015.3
20260508120507 43 140 0.0 0.9 0.00 0.00 0.00 96 1015.3
20260508115511 41 140 0.0 0.9 0.00 0.00 0.00 96 1015.1
20260508115007 40 140 0.0 0.9 0.00 0.00 0.00 96 1015.1
20260508114006 39 140 0.0 0.9 0.00 0.00 0.00 96 1015.1
20260508113506 39 140 0.0 0.9 0.00 0.00 0.00 96 1015.0
20260508113007 39 140 0.0 0.9 0.00 0.00 0.00 96 1015.1
20260508112506 39 140 0.0 0.9 0.00 0.00 0.00 96 1015.0
20260508112006 38 140 0.0 0.9 0.00 0.00 0.00 96 1015.0
20260508110506 38 140 0.0 0.9 0.00 0.00 0.00 96 1014.8
20260508110006 38 140 0.0 2.6 0.00 0.00 0.00 96 1014.8
20260508105507 38 140 0.9 2.6 0.00 0.00 0.00 96 1014.8
20260508105006 38 128 0.0 1.7 0.00 0.00 0.00 96 1014.8
20260508104507 38 127 0.9 1.7 0.00 0.00 0.00 96 1014.8
20260508104006 38 127 0.0 0.9 0.00 0.00 0.00 96 1014.8
20260508103506 38 127 0.0 0.9 0.00 0.00 0.00 96 1014.8
20260508103006 38 127 0.0 0.9 0.00 0.00 0.00 96 1014.7
20260508102005 39 127 0.0 0.0 0.00 0.00 0.00 96 1014.7
20260508101507 39 127 0.0 0.9 0.00 0.00 0.00 96 1014.7
20260508101006 39 127 0.0 0.9 0.00 0.00 0.00 96 1014.6
20260508100506 39 127 0.0 0.9 0.00 0.00 0.00 96 1014.7
20260508100006 39 127 0.0 1.7 0.00 0.00 0.00 96 1014.7
20260508095507 39 127 0.9 1.7 0.00 0.00 0.00 96 1014.7
20260508095007 39 127 0.9 1.7 0.00 0.00 0.00 96 1014.7
20260508094506 39 127 0.9 1.7 0.00 0.00 0.00 96 1014.7
20260508094005 39 131 0.9 2.6 0.00 0.00 0.00 96 1014.7
20260508093506 38 134 0.9 2.6 0.00 0.00 0.00 96 1014.8
20260508093006 38 139 1.7 4.3 0.00 0.00 0.00 96 1014.8
20260508092505 38 131 2.6 4.3 0.00 0.00 0.00 96 1014.8
20260508092006 38 131 1.7 2.6 0.00 0.00 0.00 96 1014.7
20260508091507 38 149 0.9 2.6 0.00 0.00 0.00 96 1014.7
20260508091006 38 150 0.9 2.6 0.00 0.00 0.00 96 1014.7